Location: Unspecified
(0.0000°N, 0.0000°E)
Time: 02:12:26
(UTC+01:00)

Daily predictions for brighter satellites

Satellite Brightness Start Highest point End
(mag) Time Altitude Azimuth Time Altitude Azimuth Time Altitude Azimuth
Cosmos 2219 Rocket 4.1 04:21:22 24° ESE 04:21:22 24° ESE 04:24:00 10° SE
Cosmos 2333 Rocket 3.9 04:27:40 29° E 04:27:40 29° E 04:31:32 10° SE
ARIANE 5 R/B 3.2 04:53:03 79° NE 04:53:03 79° NE 05:14:24 10° E
Cosmos 2237 Rocket 2.9 04:56:58 46° ENE 04:57:31 48° ENE 05:02:59 10° SSE
Cosmos 2233 Rocket 3.9 05:00:23 10° S 05:06:36 88° E 05:07:22 70° N
CZ-3C R/B 4.4 05:06:27 38° NW 05:15:29 68° NNE 08:18:52 10° ESE
Meteor 1-16 Rocket 4.1 05:11:07 10° S 05:16:43 84° E 05:18:25 46° N
Cosmos 836 Rocket 4.3 05:25:38 72° W 05:25:49 73° WSW 05:31:04 10° S
CZ-3B DEB 4.5 05:17:08 10° SSW 05:26:15 30° SE 05:30:40 10° ENE
Cosmos 540 Rocket 3.4 05:29:31 41° N 05:31:19 78° ENE 05:36:25 10° SSE
Cosmos 1461 2.9 05:33:06 67° SSW 05:33:06 67° SSW 05:37:02 10° SSE
CZ-2C R/B 3.5 05:29:36 10° S 05:34:04 86° WSW 05:34:59 57° NNW
Cosmos 2263 Rocket 2.1 05:32:10 10° SSW 05:37:48 88° WNW 05:43:27 10° NNE
Cosmos 2344 3.6 05:31:08 10° SW 05:39:49 59° WNW 05:47:21 10° N
Ariane H10-3 2.9 05:46:31 28° NE 05:46:31 28° NE 05:47:53 10° ENE
Cosmos 1980 4.0 05:45:18 39° W 05:46:17 43° WSW 05:51:35 10° S
Centaur AC-64 3.7 05:45:23 33° WNW 05:47:16 39° NW 05:50:30 10° NE
Cosmos 2221 2.4 05:47:04 10° S 05:51:26 75° W 05:55:45 10° N
APEX 3.8 05:47:23 10° SSW 05:52:52 54° WNW 05:57:06 10° N
Cosmos 1674 3.3 05:53:41 36° WSW 05:53:41 36° WSW 05:56:43 10° SSW
FUSE 4.5 05:50:00 14° SW 05:54:29 57° SSE 05:59:42 10° ENE
Cosmos 1816 Rocket 4.4 05:49:33 10° N 05:55:43 72° W 06:01:51 10° S
Spelda 30 3.8 05:50:25 25° W 05:56:03 73° N 05:59:22 10° E
MINOTAUR IV R/B 4.5 05:55:19 10° SSW 05:59:48 66° WNW 06:04:15 10° N
Cosmos 2219 Rocket 3.8 06:03:09 15° WSW 06:03:09 15° WSW 06:05:48 10° SW
Cosmos 389 Rocket 3.3 06:00:06 10° S 06:03:40 54° E 06:07:14 10° NNE
Sylda 4400 4.3 06:03:00 25° WNW 06:05:02 35° NNW 06:07:56 10° ENE
Ariane 42L Rocket 4.2 06:02:10 24° NW 06:05:20 52° NNE 06:28:51 10° E
Cosmos 1464 Rocket 4.0 05:59:13 10° SSW 06:05:32 66° W 06:11:47 10° N
STPSAT 2 (USA 217) 4.5 06:02:03 10° SSW 06:06:34 79° WNW 06:11:03 10° N
ARIANE 5 R/B 4.1 06:05:30 24° NW 06:07:15 40° N 06:13:49 10° E
NOAA 6 4.4 06:03:34 10° N 06:08:22 39° WNW 06:13:10 10° SW
Cosmos 2333 Rocket 3.6 06:09:44 18° W 06:10:29 18° WSW 06:14:19 10° SSW
Aurora 2 Rocket 4.3 06:04:00 21° WNW 06:11:33 79° SSW 06:19:15 10° ESE
CZ-4 R/B 4.1 06:10:16 10° NE 06:13:39 24° ESE 06:17:03 10° SSE
CSL-04 Rocket 3.7 06:12:34 10° NNE 06:17:51 81° ESE 06:23:11 10° S
Ariane H10 1.7 06:19:26 21° W 06:20:48 72° S 06:23:02 10° E
Cosmos 2151 2.9 06:16:40 10° N 06:20:56 84° W 06:25:14 10° S
Ariane H10 2.8 06:20:00 20° WNW 06:21:49 50° N 06:27:48 10° E
ISS -0.6 06:20:21 10° NNE 06:22:30 16° NE 06:24:39 10° E
Cosmos 858 Rocket 4.4 06:18:52 10° SSW 06:24:00 67° WNW 06:29:08 10° N
Delta 128 4.3 06:20:07 16° WNW 06:24:25 53° SSW 06:29:12 10° SE
Cosmos 1908 3.1 06:25:20 10° S 06:29:09 72° W 06:32:56 10° N
Cosmos 990 Rocket 4.1 06:24:29 10° S 06:29:38 79° ESE 06:34:46 10° NNE
OE (NEXTSAT) 4.4 06:27:46 11° NW 06:31:07 83° NE 06:34:40 10° SE
SL-14 R/B 3.6 06:30:27 10° NNW 06:34:18 47° W 06:38:09 10° SSW
Cosmos 1898 Rocket 4.0 06:33:25 10° SW 06:38:11 37° WNW 06:42:59 10° N
Cosmos 1340 Rocket 2.8 06:34:43 10° N 06:38:41 71° W 06:42:44 10° S
Cosmos 2237 Rocket 4.0 06:39:42 10° W 06:41:19 11° WSW 06:42:57 10° WSW
USA 229 DEB 4.1 06:38:39 10° NW 06:45:37 50° WSW 06:52:36 10° S
USA 229 4.1 06:38:44 10° NW 06:45:42 51° WSW 06:52:43 10° S
Cosmos 1538 Rocket 4.2 06:40:38 10° NNW 06:45:48 56° WSW 06:50:57 10° S
Ariane Rocket 3.6 06:41:20 10° NNW 06:45:56 35° WNW 06:50:33 10° SW
COSMO-SKYMED 1 2.6 06:43:13 10° S 06:47:33 85° WSW 06:51:53 10° NNW
ARIANE 3 DEB 4.2 06:45:03 10° WSW 06:47:55 36° SSE 06:53:28 10° E
NOSS 2-1 (D) 3.7 06:44:22 10° SW 06:48:43 45° WNW 06:52:25 10° N
NOSS 2-1 (C) 3.7 06:44:51 10° SW 06:49:15 46° WNW 06:53:01 10° N
SL-16 R/B 3.1 06:45:04 10° NW 06:49:56 30° WSW 06:54:49 10° SSW
Genesis I 4.2 06:46:16 10° N 06:50:00 47° ENE 06:53:45 10° SE
CZ-3 R/B 1.7 06:50:51 10° WNW 07:04:06 67° SW 07:07:57 10° SE
Ariane H10+ 3.7 06:36:45 10° W 07:25:07 89° N 07:29:55 10° E
